OPS 4682 DEB, 38381

Orbit data source: Space-Track

OPS 4682 DEB, 38381 is space debris in LEO originally from a launch on Sat, 03 Apr 1965 UTC launched from the Air Force Western Test Range (AFWTR). Debris objects in space refer to the collection of defunct objects orbiting the Earth. Examples of debris include non-operational satellites, rocket bodies, and fragments generated from explosions, collisions, or faulty payload assembly.

Loading next visibility...
Identifier
38381, 1965-027CJ
Orbit
LEO
Country
Flag of USUS
Related business
Manufacturer
Unknown
Mission
Spacecraft
Bus & Motor
Unknown
Mass
Unknown
Launch date (UTC)
1965-04-03 (61 years ago)
Launch vehicle
Unknown
Launch site
Air Force Western Test Range (AFWTR)
Object type
Payload
Rocket body
Debris
Shape & HBR
Unknown shape, 0.1 m
Radar Cross Section
Medium (>0.1 m² and <1 m²)

Expand to show TLE details & history
Last TLE update: 3 days ago

TLE from 3 days ago
0 OPS 4682 DEB
1 38381U 65027CJ  26204.91510049  .00000168  00000-0  53211-3 0  9996
2 38381  90.2552  19.2367 0022398 136.8633 223.4250 13.00239994590866
Epoch: 2026-07-23T21:57Z
TLE epoch observation values (Epoch: 2026-07-23T21:57:44.682Z)
Latitude
0.00008°
Longitude
108.15128°
Altitude
1,276.478 km
Speed
7.212 km/s
True Right ascension
01h 16m 56s
True Declination
0° 00' 00"
Sunlit
Object was in daylight at epoch
Visualization orbit readout
Latitude
Unknown
Longitude
Unknown
Altitude
Unknown
Speed
Unknown
Apparent Right ascension
Unknown
Apparent Declination
Unknown
Sunlit
N/A
Visualization observer readout
Local Sidereal Time
23:13:43
Azimuth
Unknown
Elevation
Unknown
Doppler factor
Unknown
Orbital elements
Apogee altitude
1,275.377 km
Perigee altitude
1,241.169 km
Semi-major axis
7,636.41 km
Eccentricity
0.00224
Inclination
90.2552°
RAAN
19.2367°
Arg. of periapsis
136.8633°
True anomaly
223.24893°
Mean anomaly
223.425°
Eccentric anomaly
223.33693°
Mean motion
3.25244 °/min
Orbital period
110.69 mins
BSTAR
0.00053211
Loading maneuver chart data...
Computing Atmospheric mass density...
Loading historical data...
Loading historical data...
Loading historical data...
Loading historical data...
Loading historical data...
Loading historical data...
Loading historical data...

Documentation

Showing up to 5 results
|